"datetime","temp","dp","rain_mm","uv","solar","mb","wind_mph","gust_mph","windchill","rh"
"2024-03-06 00:00:00",1.9,0.9,0.0,0.0,0,1017.0,0,1,"",93
"2024-03-06 00:01:00",1.9,0.9,0.0,0.0,0,1017.1,1,1,"",93
"2024-03-06 00:02:00",1.9,0.9,0.0,0.0,0,1017.0,1,1,"",93
"2024-03-06 00:03:00",1.9,0.9,0.0,0.0,0,1017.0,1,1,"",93
"2024-03-06 00:04:00",1.9,0.9,0.0,0.0,0,1017.1,0,1,"",93
"2024-03-06 00:05:00",1.9,0.9,0.0,0.0,0,1017.1,0,1,"",93
"2024-03-06 00:06:00",1.9,0.9,0.0,0.0,0,1017.1,0,0,"",93
"2024-03-06 00:07:00",1.9,0.9,0.0,0.0,0,1017.1,0,0,"",93
"2024-03-06 00:08:00",1.9,0.9,0.0,0.0,0,1017.1,0,1,"",93
"2024-03-06 00:09:00",1.9,0.9,0.0,0.0,0,1017.1,0,0,"",93
"2024-03-06 00:10:00",1.9,0.9,0.0,0.0,0,1017.1,0,1,"",93
"2024-03-06 00:11:00",1.9,0.9,0.0,0.0,0,1017.1,0,0,"",93
"2024-03-06 00:12:00",1.9,0.9,0.0,0.0,0,1017.1,0,0,"",93
"2024-03-06 00:13:00",1.8,0.8,0.0,0.0,0,1017.1,0,0,"",93
"2024-03-06 00:14:00",1.8,0.8,0.0,0.0,0,1017.1,0,0,"",93
"2024-03-06 00:15:00",1.8,0.8,0.0,0.0,0,1017.1,0,0,"",93
"2024-03-06 00:16:00",1.8,0.8,0.0,0.0,0,1017.1,0,0,"",93
"2024-03-06 00:17:00",1.8,0.8,0.0,0.0,0,1017.2,0,1,"",93
"2024-03-06 00:18:00",1.8,0.8,0.0,0.0,0,1017.2,0,0,"",93
"2024-03-06 00:19:00",1.8,0.8,0.0,0.0,0,1017.2,0,0,"",93
"2024-03-06 00:20:00",1.8,0.8,0.0,0.0,0,1017.2,0,0,"",93
"2024-03-06 00:21:00",1.8,0.8,0.0,0.0,0,1017.2,0,1,"",93
"2024-03-06 00:22:00",1.8,0.8,0.0,0.0,0,1017.1,0,1,"",93
"2024-03-06 00:23:00",1.8,0.8,0.0,0.0,0,1017.2,0,1,"",93
"2024-03-06 00:24:00",1.7,0.7,0.0,0.0,0,1017.2,0,0,"",93
"2024-03-06 00:25:00",1.7,0.7,0.0,0.0,0,1017.1,0,0,"",93
"2024-03-06 00:26:00",1.7,0.7,0.0,0.0,0,1017.1,0,0,"",93
"2024-03-06 00:27:00",1.7,0.7,0.0,0.0,0,1017.2,0,0,"",93
"2024-03-06 00:28:00",1.7,0.7,0.0,0.0,0,1017.2,0,0,"",93
"2024-03-06 00:29:00",1.7,0.7,0.0,0.0,0,1017.2,0,0,"",93
"2024-03-06 00:30:00",1.7,0.7,0.0,0.0,0,1017.1,0,0,"",93
"2024-03-06 00:31:00",1.7,0.7,0.0,0.0,0,1017.2,0,0,"",93
"2024-03-06 00:32:00",1.7,0.7,0.0,0.0,0,1017.2,0,1,"",93
"2024-03-06 00:33:00",1.7,0.7,0.0,0.0,0,1017.2,0,1,"",93
"2024-03-06 00:34:00",1.7,0.7,0.0,0.0,0,1017.2,0,1,"",93
"2024-03-06 00:35:00",1.7,0.7,0.0,0.0,0,1017.3,0,1,"",93
"2024-03-06 00:36:00",1.6,0.6,0.0,0.0,0,1017.3,1,2,"",93
"2024-03-06 00:37:00",1.7,0.7,0.0,0.0,0,1017.2,1,1,"",93
"2024-03-06 00:38:00",1.6,0.6,0.0,0.0,0,1017.2,1,1,"",93
"2024-03-06 00:39:00",1.6,0.6,0.0,0.0,0,1017.3,0,1,"",93
"2024-03-06 00:40:00",1.6,0.6,0.0,0.0,0,1017.3,0,1,"",93
"2024-03-06 00:41:00",1.6,0.6,0.0,0.0,0,1017.3,0,1,"",93
"2024-03-06 00:42:00",1.6,0.6,0.0,0.0,0,1017.3,0,0,"",93
"2024-03-06 00:43:00",1.6,0.6,0.0,0.0,0,1017.3,0,0,"",93
"2024-03-06 00:44:00",1.6,0.6,0.0,0.0,0,1017.3,0,0,"",93
"2024-03-06 00:45:00",1.6,0.6,0.0,0.0,0,1017.3,0,1,"",93
"2024-03-06 00:46:00",1.6,0.6,0.0,0.0,0,1017.3,1,2,"",93
"2024-03-06 00:47:00",1.6,0.6,0.0,0.0,0,1017.3,1,1,"",93
"2024-03-06 00:48:00",1.5,0.5,0.0,0.0,0,1017.4,1,1,"",93
"2024-03-06 00:49:00",1.5,0.5,0.0,0.0,0,1017.3,0,1,"",93
"2024-03-06 00:50:00",1.5,0.5,0.0,0.0,0,1017.3,1,1,"",93
"2024-03-06 00:51:00",1.5,0.5,0.0,0.0,0,1017.4,0,1,"",93
"2024-03-06 00:52:00",1.4,0.4,0.0,0.0,0,1017.4,1,2,"",93
"2024-03-06 00:53:00",1.5,0.5,0.0,0.0,0,1017.4,1,2,"",93
"2024-03-06 00:54:00",1.4,0.4,0.0,0.0,0,1017.4,1,2,"",93
"2024-03-06 00:55:00",1.4,0.4,0.0,0.0,0,1017.4,1,2,"",93
"2024-03-06 00:56:00",1.4,0.4,0.0,0.0,0,1017.4,1,1,"",93
"2024-03-06 00:57:00",1.4,0.4,0.0,0.0,0,1017.3,1,1,"",93
"2024-03-06 00:58:00",1.4,0.4,0.0,0.0,0,1017.3,0,1,"",93
"2024-03-06 00:59:00",1.3,0.3,0.0,0.0,0,1017.3,0,1,"",93
"2024-03-06 01:00:00",1.4,0.4,0.0,0.0,0,1017.3,0,1,"",93
"2024-03-06 01:01:00",1.4,0.4,0.0,0.0,0,1017.3,0,1,"",93
"2024-03-06 01:02:00",1.4,0.4,0.0,0.0,0,1017.3,0,1,"",93
"2024-03-06 01:03:00",1.3,0.3,0.0,0.0,0,1017.4,1,2,"",93
"2024-03-06 01:04:00",1.3,0.3,0.0,0.0,0,1017.4,1,2,"",93
"2024-03-06 01:05:00",1.3,0.3,0.0,0.0,0,1017.4,1,1,"",93
"2024-03-06 01:06:00",1.3,0.3,0.0,0.0,0,1017.4,1,1,"",93
"2024-03-06 01:07:00",1.3,0.3,0.0,0.0,0,1017.4,0,1,"",93
"2024-03-06 01:08:00",1.3,0.3,0.0,0.0,0,1017.4,0,1,"",93
"2024-03-06 01:09:00",1.3,0.3,0.0,0.0,0,1017.4,0,1,"",93
"2024-03-06 01:10:00",1.3,0.3,0.0,0.0,0,1017.4,0,1,"",93
"2024-03-06 01:11:00",1.3,0.3,0.0,0.0,0,1017.4,0,1,"",93
"2024-03-06 01:12:00",1.3,0.3,0.0,0.0,0,1017.4,0,1,"",93
"2024-03-06 01:13:00",1.3,0.3,0.0,0.0,0,1017.4,0,0,"",93
"2024-03-06 01:14:00",1.3,0.3,0.0,0.0,0,1017.4,0,0,"",93
"2024-03-06 01:15:00",1.2,0.2,0.0,0.0,0,1017.3,0,1,"",93
"2024-03-06 01:16:00",1.2,0.2,0.0,0.0,0,1017.4,0,0,"",93
"2024-03-06 01:17:00",1.2,0.2,0.0,0.0,0,1017.3,0,0,"",93
"2024-03-06 01:18:00",1.3,0.3,0.0,0.0,0,1017.3,0,1,"",93
"2024-03-06 01:19:00",1.2,0.2,0.0,0.0,0,1017.3,0,0,"",93
"2024-03-06 01:20:00",1.2,0.2,0.0,0.0,0,1017.4,0,1,"",93
"2024-03-06 01:21:00",1.2,0.2,0.0,0.0,0,1017.4,0,1,"",93
"2024-03-06 01:22:00",1.2,0.2,0.0,0.0,0,1017.3,0,1,"",93
"2024-03-06 01:23:00",1.2,0.2,0.0,0.0,0,1017.4,1,1,"",93
"2024-03-06 01:24:00",1.2,0.2,0.0,0.0,0,1017.4,1,1,"",93
"2024-03-06 01:25:00",1.2,0.2,0.0,0.0,0,1017.4,1,1,"",93
"2024-03-06 01:26:00",1.2,0.2,0.0,0.0,0,1017.4,1,1,"",93
"2024-03-06 01:27:00",1.2,0.2,0.0,0.0,0,1017.4,1,1,"",93
"2024-03-06 01:28:00",1.2,0.2,0.0,0.0,0,1017.4,1,1,"",93
"2024-03-06 01:29:00",1.1,0.1,0.0,0.0,0,1017.4,0,1,"",93
"2024-03-06 01:30:00",1.1,0.1,0.0,0.0,0,1017.5,0,1,"",93
"2024-03-06 01:31:00",1.1,0.1,0.0,0.0,0,1017.4,0,0,"",93
"2024-03-06 01:32:00",1.1,0.1,0.0,0.0,0,1017.4,0,0,"",93
"2024-03-06 01:33:00",1.1,0.1,0.0,0.0,0,1017.4,0,0,"",93
"2024-03-06 01:34:00",1.1,0.1,0.0,0.0,0,1017.4,0,1,"",93
"2024-03-06 01:35:00",1.1,0.1,0.0,0.0,0,1017.4,0,1,"",93
"2024-03-06 01:36:00",1.1,0.1,0.0,0.0,0,1017.4,0,1,"",93
"2024-03-06 01:37:00",1.1,0.1,0.0,0.0,0,1017.4,0,1,"",93
"2024-03-06 01:38:00",1.1,0.1,0.0,0.0,0,1017.3,1,1,"",93
"2024-03-06 01:39:00",1.0,0.0,0.0,0.0,0,1017.4,1,1,"",93
"2024-03-06 01:40:00",0.9,"-0.1",0.0,0.0,0,1017.4,0,1,"",93
"2024-03-06 01:41:00",0.9,"-0.1",0.0,0.0,0,1017.3,0,1,"",93
"2024-03-06 01:42:00",0.9,"-0.1",0.0,0.0,0,1017.3,0,1,"",93
"2024-03-06 01:43:00",0.9,"-0.1",0.0,0.0,0,1017.3,1,1,"",93
"2024-03-06 01:44:00",0.9,"-0.1",0.0,0.0,0,1017.3,1,1,"",93
"2024-03-06 01:45:00",0.9,"-0.1",0.0,0.0,0,1017.3,1,1,"",93
"2024-03-06 01:46:00",0.9,"-0.1",0.0,0.0,0,1017.3,1,1,"",93
"2024-03-06 01:47:00",0.9,"-0.1",0.0,0.0,0,1017.3,0,1,"",93
"2024-03-06 01:48:00",0.9,"-0.1",0.0,0.0,0,1017.3,0,1,"",93
"2024-03-06 01:49:00",0.9,"-0.1",0.0,0.0,0,1017.3,1,1,"",93
"2024-03-06 01:50:00",0.9,"-0.1",0.0,0.0,0,1017.3,1,1,"",93
"2024-03-06 01:51:00",0.9,"-0.1",0.0,0.0,0,1017.3,1,1,"",93
"2024-03-06 01:52:00",0.9,"-0.1",0.0,0.0,0,1017.3,1,1,"",93
"2024-03-06 01:53:00",0.9,"-0.1",0.0,0.0,0,1017.3,0,1,"",93
"2024-03-06 01:54:00",0.8,"-0.2",0.0,0.0,0,1017.3,0,0,"",93
"2024-03-06 01:55:00",0.8,"-0.2",0.0,0.0,0,1017.3,0,0,"",93
"2024-03-06 01:56:00",0.8,"-0.2",0.0,0.0,0,1017.3,1,1,"",93
"2024-03-06 01:57:00",0.8,"-0.2",0.0,0.0,0,1017.3,1,2,"",93
"2024-03-06 01:58:00",0.8,"-0.2",0.0,0.0,0,1017.4,1,2,"",93
"2024-03-06 01:59:00",0.8,"-0.2",0.0,0.0,0,1017.3,1,2,"",93
"2024-03-06 02:00:00",0.8,"-0.2",0.0,0.0,0,1017.3,1,2,"",93
"2024-03-06 02:01:00",0.8,"-0.2",0.0,0.0,0,1017.3,1,2,"",93
"2024-03-06 02:02:00",0.7,"-0.3",0.0,0.0,0,1017.3,1,2,"",93
"2024-03-06 02:03:00",0.7,"-0.3",0.0,0.0,0,1017.4,1,2,"",93
"2024-03-06 02:04:00",0.8,"-0.2",0.0,0.0,0,1017.4,0,1,"",93
"2024-03-06 02:05:00",0.7,"-0.3",0.0,0.0,0,1017.4,1,1,"",93
"2024-03-06 02:06:00",0.7,"-0.3",0.0,0.0,0,1017.4,1,2,"",93
"2024-03-06 02:07:00",0.7,"-0.3",0.0,0.0,0,1017.4,1,1,"",93
"2024-03-06 02:08:00",0.7,"-0.3",0.0,0.0,0,1017.4,1,1,"",93
"2024-03-06 02:09:00",0.7,"-0.3",0.0,0.0,0,1017.4,1,1,"",93
"2024-03-06 02:10:00",0.7,"-0.3",0.0,0.0,0,1017.4,0,1,"",93
"2024-03-06 02:11:00",0.7,"-0.3",0.0,0.0,0,1017.4,0,1,"",93
"2024-03-06 02:12:00",0.7,"-0.3",0.0,0.0,0,1017.4,0,1,"",93
"2024-03-06 02:13:00",0.7,"-0.3",0.0,0.0,0,1017.4,0,1,"",93
"2024-03-06 02:14:00",0.7,"-0.3",0.0,0.0,0,1017.4,0,1,"",93
"2024-03-06 02:15:00",0.7,"-0.3",0.0,0.0,0,1017.4,1,1,"",93
"2024-03-06 02:16:00",0.7,"-0.3",0.0,0.0,0,1017.4,1,2,"",93
"2024-03-06 02:17:00",0.7,"-0.3",0.0,0.0,0,1017.4,1,2,"",93
"2024-03-06 02:18:00",0.7,"-0.3",0.0,0.0,0,1017.5,1,2,"",93
"2024-03-06 02:19:00",0.7,"-0.3",0.0,0.0,0,1017.5,1,2,"",93
"2024-03-06 02:20:00",0.7,"-0.3",0.0,0.0,0,1017.4,1,2,"",93
"2024-03-06 02:21:00",0.7,"-0.3",0.0,0.0,0,1017.4,1,2,"",93
"2024-03-06 02:22:00",0.7,"-0.3",0.0,0.0,0,1017.5,0,2,"",93
"2024-03-06 02:23:00",0.6,"-0.4",0.0,0.0,0,1017.4,0,1,"",93
"2024-03-06 02:24:00",0.6,"-0.4",0.0,0.0,0,1017.4,0,1,"",93
"2024-03-06 02:25:00",0.6,"-0.4",0.0,0.0,0,1017.4,0,1,"",93
"2024-03-06 02:26:00",0.6,"-0.4",0.0,0.0,0,1017.4,0,1,"",93
"2024-03-06 02:27:00",0.6,"-0.4",0.0,0.0,0,1017.5,0,1,"",93
"2024-03-06 02:28:00",0.6,"-0.4",0.0,0.0,0,1017.4,1,2,"",93
"2024-03-06 02:29:00",0.6,"-0.4",0.0,0.0,0,1017.4,1,1,"",93
"2024-03-06 02:30:00",0.6,"-0.4",0.0,0.0,0,1017.4,1,1,"",93
"2024-03-06 02:31:00",0.6,"-0.4",0.0,0.0,0,1017.4,1,1,"",93
"2024-03-06 02:32:00",0.6,"-0.4",0.0,0.0,0,1017.4,0,1,"",93
"2024-03-06 02:33:00",0.6,"-0.4",0.0,0.0,0,1017.4,1,1,"",93
"2024-03-06 02:34:00",0.5,"-0.5",0.0,0.0,0,1017.4,1,1,"",93
"2024-03-06 02:35:00",0.5,"-0.5",0.0,0.0,0,1017.4,1,1,"",93
"2024-03-06 02:36:00",0.5,"-0.5",0.0,0.0,0,1017.4,1,1,"",93
"2024-03-06 02:37:00",0.5,"-0.5",0.0,0.0,0,1017.4,0,1,"",93
"2024-03-06 02:38:00",0.5,"-0.5",0.0,0.0,0,1017.4,1,1,"",93
"2024-03-06 02:39:00",0.5,"-0.4",0.0,0.0,0,1017.4,1,1,"",94
"2024-03-06 02:40:00",0.5,"-0.5",0.0,0.0,0,1017.4,1,1,"",93
"2024-03-06 02:41:00",0.5,"-0.5",0.0,0.0,0,1017.4,1,1,"",93
"2024-03-06 02:42:00",0.5,"-0.5",0.0,0.0,0,1017.4,1,1,"",93
"2024-03-06 02:43:00",0.5,"-0.5",0.0,0.0,0,1017.5,0,1,"",93
"2024-03-06 02:44:00",0.4,"-0.6",0.0,0.0,0,1017.4,0,1,"",93
"2024-03-06 02:45:00",0.4,"-0.6",0.0,0.0,0,1017.4,0,1,"",93
"2024-03-06 02:46:00",0.4,"-0.6",0.0,0.0,0,1017.5,0,1,"",93
"2024-03-06 02:47:00",0.4,"-0.6",0.0,0.0,0,1017.4,0,1,"",93
"2024-03-06 02:48:00",0.4,"-0.6",0.0,0.0,0,1017.4,0,0,"",93
"2024-03-06 02:49:00",0.4,"-0.6",0.0,0.0,0,1017.4,1,2,"",93
"2024-03-06 02:50:00",0.4,"-0.6",0.0,0.0,0,1017.4,1,2,"",93
"2024-03-06 02:51:00",0.4,"-0.6",0.0,0.0,0,1017.4,1,2,"",93
"2024-03-06 02:52:00",0.4,"-0.6",0.0,0.0,0,1017.4,0,1,"",93
"2024-03-06 02:53:00",0.4,"-0.6",0.0,0.0,0,1017.4,0,1,"",93
"2024-03-06 02:54:00",0.4,"-0.6",0.0,0.0,0,1017.4,0,1,"",93
"2024-03-06 02:55:00",0.4,"-0.6",0.0,0.0,0,1017.4,1,1,"",93
"2024-03-06 02:56:00",0.4,"-0.6",0.0,0.0,0,1017.4,1,1,"",93
"2024-03-06 02:57:00",0.4,"-0.6",0.0,0.0,0,1017.4,1,2,"",93
"2024-03-06 02:58:00",0.4,"-0.6",0.0,0.0,0,1017.4,1,1,"",93
"2024-03-06 02:59:00",0.4,"-0.6",0.0,0.0,0,1017.4,1,1,"",93
"2024-03-06 03:00:00",0.4,"-0.6",0.0,0.0,0,1017.4,0,1,"",93
"2024-03-06 03:01:00",0.4,"-0.6",0.0,0.0,0,1017.3,1,1,"",93
"2024-03-06 03:02:00",0.4,"-0.6",0.0,0.0,0,1017.3,0,1,"",93
"2024-03-06 03:03:00",0.4,"-0.6",0.0,0.0,0,1017.3,0,1,"",93
"2024-03-06 03:04:00",0.3,"-0.7",0.0,0.0,0,1017.3,0,1,"",93
"2024-03-06 03:05:00",0.4,"-0.6",0.0,0.0,0,1017.3,1,1,"",93
"2024-03-06 03:06:00",0.3,"-0.7",0.0,0.0,0,1017.3,0,1,"",93
"2024-03-06 03:07:00",0.4,"-0.6",0.0,0.0,0,1017.3,1,1,"",93
"2024-03-06 03:08:00",0.3,"-0.6",0.0,0.0,0,1017.2,1,1,"",94
"2024-03-06 03:09:00",0.4,"-0.5",0.0,0.0,0,1017.2,1,1,"",94
"2024-03-06 03:10:00",0.3,"-0.6",0.0,0.0,0,1017.3,1,2,"",94
"2024-03-06 03:11:00",0.3,"-0.6",0.0,0.0,0,1017.2,1,1,"",94
"2024-03-06 03:12:00",0.3,"-0.6",0.0,0.0,0,1017.3,1,1,"",94
"2024-03-06 03:13:00",0.3,"-0.6",0.0,0.0,0,1017.3,1,2,"",94
"2024-03-06 03:14:00",0.3,"-0.6",0.0,0.0,0,1017.3,1,2,"",94
"2024-03-06 03:15:00",0.3,"-0.6",0.0,0.0,0,1017.3,1,1,"",94
"2024-03-06 03:16:00",0.3,"-0.6",0.0,0.0,0,1017.3,0,1,"",94
"2024-03-06 03:17:00",0.3,"-0.6",0.0,0.0,0,1017.3,1,2,"",94
"2024-03-06 03:18:00",0.3,"-0.6",0.0,0.0,0,1017.3,1,2,"",94
"2024-03-06 03:19:00",0.3,"-0.6",0.0,0.0,0,1017.3,1,2,"",94
"2024-03-06 03:20:00",0.3,"-0.6",0.0,0.0,0,1017.3,1,1,"",94
"2024-03-06 03:21:00",0.3,"-0.6",0.0,0.0,0,1017.3,1,1,"",94
"2024-03-06 03:22:00",0.3,"-0.6",0.0,0.0,0,1017.3,0,1,"",94
"2024-03-06 03:23:00",0.2,"-0.7",0.0,0.0,0,1017.4,0,1,"",94
"2024-03-06 03:24:00",0.3,"-0.6",0.0,0.0,0,1017.4,0,1,"",94
"2024-03-06 03:25:00",0.3,"-0.6",0.0,0.0,0,1017.4,0,1,"",94
"2024-03-06 03:26:00",0.3,"-0.6",0.0,0.0,0,1017.4,1,1,"",94
"2024-03-06 03:27:00",0.3,"-0.6",0.0,0.0,0,1017.3,1,1,"",94
"2024-03-06 03:28:00",0.2,"-0.7",0.0,0.0,0,1017.4,0,1,"",94
"2024-03-06 03:29:00",0.3,"-0.7",0.0,0.0,0,1017.3,0,1,"",93
"2024-03-06 03:30:00",0.3,"-0.7",0.0,0.0,0,1017.3,1,1,"",93
"2024-03-06 03:31:00",0.3,"-0.7",0.0,0.0,0,1017.3,0,1,"",93
"2024-03-06 03:32:00",0.3,"-0.7",0.0,0.0,0,1017.3,0,1,"",93
"2024-03-06 03:33:00",0.2,"-0.7",0.0,0.0,0,1017.3,1,1,"",94
"2024-03-06 03:34:00",0.2,"-0.8",0.0,0.0,0,1017.3,1,1,"",93
"2024-03-06 03:35:00",0.2,"-0.8",0.0,0.0,0,1017.3,1,1,"",93
"2024-03-06 03:36:00",0.2,"-0.8",0.0,0.0,0,1017.3,0,1,"",93
"2024-03-06 03:37:00",0.2,"-0.8",0.0,0.0,0,1017.3,1,1,"",93
"2024-03-06 03:38:00",0.2,"-0.8",0.0,0.0,0,1017.3,1,1,"",93
"2024-03-06 03:39:00",0.2,"-0.8",0.0,0.0,0,1017.3,1,1,"",93
"2024-03-06 03:40:00",0.2,"-0.8",0.0,0.0,0,1017.3,1,2,"",93
"2024-03-06 03:41:00",0.2,"-0.8",0.0,0.0,0,1017.3,1,2,"",93
"2024-03-06 03:42:00",0.2,"-0.8",0.0,0.0,0,1017.3,1,2,"",93
"2024-03-06 03:43:00",0.2,"-0.8",0.0,0.0,0,1017.3,1,2,"",93
"2024-03-06 03:44:00",0.2,"-0.8",0.0,0.0,0,1017.3,0,1,"",93
"2024-03-06 03:45:00",0.2,"-0.8",0.0,0.0,0,1017.3,0,1,"",93
"2024-03-06 03:46:00",0.2,"-0.8",0.0,0.0,0,1017.3,0,1,"",93
"2024-03-06 03:47:00",0.2,"-0.7",0.0,0.0,0,1017.2,0,1,"",94
"2024-03-06 03:48:00",0.2,"-0.8",0.0,0.0,0,1017.3,0,1,"",93
"2024-03-06 03:49:00",0.2,"-0.8",0.0,0.0,0,1017.3,0,1,"",93
"2024-03-06 03:50:00",0.2,"-0.8",0.0,0.0,0,1017.3,1,1,"",93
"2024-03-06 03:51:00",0.2,"-0.7",0.0,0.0,0,1017.3,1,1,"",94
"2024-03-06 03:52:00",0.2,"-0.8",0.0,0.0,0,1017.3,1,2,"",93
"2024-03-06 03:53:00",0.2,"-0.8",0.0,0.0,0,1017.2,1,2,"",93
"2024-03-06 03:54:00",0.2,"-0.7",0.0,0.0,0,1017.3,1,1,"",94
"2024-03-06 03:55:00",0.2,"-0.7",0.0,0.0,0,1017.2,1,1,"",94
"2024-03-06 03:56:00",0.2,"-0.8",0.0,0.0,0,1017.3,1,1,"",93
"2024-03-06 03:57:00",0.2,"-0.7",0.0,0.0,0,1017.3,1,1,"",94
"2024-03-06 03:58:00",0.2,"-0.7",0.0,0.0,0,1017.3,1,2,"",94
"2024-03-06 03:59:00",0.2,"-0.7",0.0,0.0,0,1017.3,1,2,"",94
"2024-03-06 04:00:00",0.2,"-0.7",0.0,0.0,0,1017.3,1,2,"",94
"2024-03-06 04:01:00",0.2,"-0.7",0.0,0.0,0,1017.4,1,1,"",94
"2024-03-06 04:02:00",0.2,"-0.7",0.0,0.0,0,1017.3,1,1,"",94
"2024-03-06 04:03:00",0.2,"-0.7",0.0,0.0,0,1017.3,1,1,"",94
"2024-03-06 04:04:00",0.2,"-0.7",0.0,0.0,0,1017.3,0,1,"",94
"2024-03-06 04:05:00",0.2,"-0.7",0.0,0.0,0,1017.4,0,1,"",94
"2024-03-06 04:06:00",0.2,"-0.7",0.0,0.0,0,1017.3,0,1,"",94
"2024-03-06 04:07:00",0.1,"-0.8",0.0,0.0,0,1017.3,0,1,"",94
"2024-03-06 04:08:00",0.2,"-0.7",0.0,0.0,0,1017.3,0,1,"",94
"2024-03-06 04:09:00",0.1,"-0.8",0.0,0.0,0,1017.3,0,1,"",94
"2024-03-06 04:10:00",0.1,"-0.8",0.0,0.0,0,1017.4,1,1,"",94
"2024-03-06 04:11:00",0.1,"-0.8",0.0,0.0,0,1017.4,1,1,"",94
"2024-03-06 04:12:00",0.1,"-0.8",0.0,0.0,0,1017.4,1,1,"",94
"2024-03-06 04:13:00",0.1,"-0.8",0.0,0.0,0,1017.4,1,1,"",94
"2024-03-06 04:14:00",0.1,"-0.8",0.0,0.0,0,1017.4,1,1,"",94
"2024-03-06 04:15:00",0.1,"-0.8",0.0,0.0,0,1017.4,1,1,"",94
"2024-03-06 04:16:00",0.1,"-0.8",0.0,0.0,0,1017.4,1,1,"",94
"2024-03-06 04:17:00",0.1,"-0.8",0.0,0.0,0,1017.4,0,1,"",94
"2024-03-06 04:18:00",0.1,"-0.8",0.0,0.0,0,1017.4,0,1,"",94
"2024-03-06 04:19:00",0.1,"-0.8",0.0,0.0,0,1017.4,0,1,"",94
"2024-03-06 04:20:00",0.1,"-0.8",0.0,0.0,0,1017.4,0,1,"",94
"2024-03-06 04:21:00",0.1,"-0.8",0.0,0.0,0,1017.4,0,1,"",94
"2024-03-06 04:22:00",0.1,"-0.8",0.0,0.0,0,1017.4,1,1,"",94
"2024-03-06 04:23:00",0.1,"-0.8",0.0,0.0,0,1017.4,0,1,"",94
"2024-03-06 04:24:00",0.1,"-0.8",0.0,0.0,0,1017.4,1,1,"",94
"2024-03-06 04:25:00",0.1,"-0.8",0.0,0.0,0,1017.5,0,1,"",94
"2024-03-06 04:26:00",0.1,"-0.8",0.0,0.0,0,1017.4,0,1,"",94
"2024-03-06 04:27:00",0.1,"-0.8",0.0,0.0,0,1017.4,1,1,"",94
"2024-03-06 04:28:00",0.1,"-0.8",0.0,0.0,0,1017.4,1,1,"",94
"2024-03-06 04:29:00",0.1,"-0.8",0.0,0.0,0,1017.4,1,1,"",94
"2024-03-06 04:30:00",0.1,"-0.8",0.0,0.0,0,1017.4,1,1,"",94
"2024-03-06 04:31:00",0.1,"-0.8",0.0,0.0,0,1017.4,1,1,"",94
"2024-03-06 07:49:00",1.0,0.3,0.2,0.0,53,1018.9,1,2,"",95
"2024-03-06 07:50:00",1.1,0.4,0.2,0.0,53,1019.0,1,2,"",95
"2024-03-06 07:51:00",1.1,0.4,0.2,0.0,53,1019.0,1,2,"",95
"2024-03-06 07:52:00",1.1,0.4,0.2,0.0,54,1019.0,1,2,"",95
"2024-03-06 07:53:00",1.2,0.5,0.2,0.0,56,1019.0,1,2,"",95
"2024-03-06 07:54:00",1.2,0.5,0.2,0.0,56,1019.0,1,2,"",95
"2024-03-06 07:55:00",1.2,0.5,0.2,0.0,60,1019.1,1,2,"",95
"2024-03-06 07:56:00",1.3,0.6,0.2,0.0,62,1019.0,1,2,"",95
"2024-03-06 07:57:00",1.3,0.6,0.2,0.0,62,1019.0,1,2,"",95
"2024-03-06 07:58:00",1.3,0.6,0.2,0.0,62,1019.0,1,1,"",95
"2024-03-06 07:59:00",1.3,0.6,0.2,0.0,63,1019.1,1,2,"",95
"2024-03-06 08:00:00",1.3,0.6,0.2,0.0,65,1019.1,1,1,"",95
"2024-03-06 08:01:00",1.4,0.7,0.2,0.0,65,1019.1,1,2,"",95
"2024-03-06 08:02:00",1.4,0.7,0.2,0.0,69,1019.1,1,2,"",95
"2024-03-06 08:03:00",1.5,0.8,0.2,0.0,70,1019.2,1,2,"",95
"2024-03-06 08:04:00",1.6,1.0,0.2,0.0,72,1019.1,1,1,"",96
"2024-03-06 08:05:00",1.8,1.1,0.2,0.0,76,1019.1,1,1,"",95
"2024-03-06 08:06:00",1.9,1.3,0.2,0.0,79,1019.1,2,3,"",96
"2024-03-06 08:07:00",2.1,1.5,0.2,0.0,84,1019.1,1,2,"",96
"2024-03-06 08:08:00",2.2,1.6,0.2,0.0,84,1019.1,1,2,"",96
"2024-03-06 08:09:00",2.3,1.6,0.2,0.0,84,1019.2,1,2,"",95
"2024-03-06 08:10:00",2.3,1.7,0.2,0.0,90,1019.1,1,1,"",96
"2024-03-06 08:11:00",2.4,1.8,0.2,0.0,93,1019.2,1,2,"",96
"2024-03-06 08:12:00",2.4,1.7,0.2,0.0,91,1019.2,1,1,"",95
"2024-03-06 08:13:00",2.4,1.7,0.2,0.0,88,1019.2,0,1,"",95
"2024-03-06 08:14:00",2.4,1.8,0.2,0.0,86,1019.2,1,1,"",96
"2024-03-06 08:15:00",2.4,1.7,0.2,0.0,86,1019.2,1,2,"",95
"2024-03-06 08:16:00",2.5,1.9,0.2,0.0,88,1019.2,1,2,"",96
"2024-03-06 08:17:00",2.5,1.8,0.2,0.0,91,1019.2,1,2,"",95
"2024-03-06 08:18:00",2.5,1.9,0.2,0.0,104,1019.2,1,1,"",96
"2024-03-06 08:19:00",2.6,2.0,0.2,0.0,109,1019.2,1,1,"",96
"2024-03-06 08:20:00",2.6,2.0,0.2,0.0,114,1019.2,1,1,"",96
"2024-03-06 08:21:00",2.6,2.0,0.2,0.0,118,1019.2,1,1,"",96
"2024-03-06 08:22:00",2.6,2.0,0.2,0.0,120,1019.2,1,2,"",96
"2024-03-06 08:23:00",2.7,2.1,0.2,0.0,123,1019.2,1,1,"",96
"2024-03-06 08:24:00",2.7,2.0,0.2,0.0,132,1019.2,1,2,"",95
"2024-03-06 08:25:00",2.7,2.1,0.2,0.0,132,1019.2,1,2,"",96
"2024-03-06 08:26:00",2.7,2.1,0.2,0.0,132,1019.2,1,2,"",96
"2024-03-06 08:27:00",2.7,2.1,0.2,0.0,132,1019.3,1,1,"",96
"2024-03-06 08:28:00",2.7,2.1,0.2,0.0,130,1019.2,1,2,"",96
"2024-03-06 08:29:00",2.8,2.2,0.2,0.0,125,1019.3,1,1,"",96
"2024-03-06 08:30:00",2.8,2.2,0.2,0.0,142,1019.3,1,1,"",96
"2024-03-06 08:31:00",2.8,2.2,0.2,0.0,151,1019.3,1,1,"",96
"2024-03-06 08:32:00",2.9,2.3,0.2,0.0,156,1019.3,1,1,"",96
"2024-03-06 08:33:00",2.9,2.3,0.2,0.0,155,1019.3,1,2,"",96
"2024-03-06 08:34:00",3.1,2.5,0.2,0.0,144,1019.3,1,1,"",96
"2024-03-06 08:35:00",3.2,2.6,0.2,0.0,137,1019.3,1,2,"",96
"2024-03-06 08:36:00",3.2,2.6,0.2,0.0,135,1019.3,2,3,"",96
"2024-03-06 08:37:00",3.2,2.6,0.2,0.0,135,1019.3,1,2,"",96
"2024-03-06 08:38:00",3.2,2.6,0.2,0.0,128,1019.4,1,2,"",96
"2024-03-06 08:39:00",3.1,2.5,0.2,0.0,127,1019.4,1,1,"",96
"2024-03-06 08:40:00",3.1,2.5,0.2,0.0,128,1019.4,1,2,"",96
"2024-03-06 08:41:00",3.1,2.5,0.2,0.0,125,1019.4,0,1,"",96
"2024-03-06 08:42:00",3.1,2.5,0.2,0.0,114,1019.4,1,2,"",96
"2024-03-06 08:43:00",3.2,2.6,0.2,0.0,114,1019.4,1,2,"",96
"2024-03-06 08:44:00",3.2,2.6,0.2,0.0,113,1019.4,1,2,"",96
"2024-03-06 08:45:00",3.2,2.6,0.2,0.0,114,1019.4,1,2,"",96
"2024-03-06 08:46:00",3.2,2.6,0.2,0.0,123,1019.4,0,1,"",96
"2024-03-06 08:47:00",3.3,2.7,0.2,0.0,116,1019.4,1,1,"",96
"2024-03-06 08:48:00",3.3,2.7,0.2,0.0,121,1019.5,1,1,"",96
"2024-03-06 08:49:00",3.4,2.8,0.2,0.0,125,1019.4,1,3,"",96
"2024-03-06 08:50:00",3.5,2.9,0.2,0.0,123,1019.4,1,2,"",96
"2024-03-06 08:51:00",3.5,2.9,0.2,0.0,121,1019.4,1,3,"",96
"2024-03-06 08:52:00",3.4,2.8,0.2,0.0,123,1019.4,1,2,"",96
"2024-03-06 08:53:00",3.3,2.7,0.2,0.0,121,1019.5,1,1,"",96
"2024-03-06 08:54:00",3.3,2.7,0.2,0.0,125,1019.4,1,2,"",96
"2024-03-06 08:55:00",3.3,2.7,0.2,0.0,125,1019.4,1,2,"",96
"2024-03-06 08:56:00",3.3,2.7,0.2,0.0,128,1019.4,1,2,"",96
"2024-03-06 08:57:00",3.3,2.7,0.2,0.0,130,1019.4,1,1,"",96
"2024-03-06 08:58:00",3.4,2.8,0.2,0.0,128,1019.4,1,2,"",96
"2024-03-06 08:59:00",3.5,2.9,0.2,0.0,139,1019.4,1,1,"",96
"2024-03-06 09:00:00",3.6,3.0,0.2,0.0,137,1019.5,1,2,"",96
"2024-03-06 09:01:00",3.7,3.1,0.2,0.0,141,1019.5,1,2,"",96
"2024-03-06 09:02:00",3.7,3.1,0.2,0.0,139,1019.5,1,2,"",96
"2024-03-06 09:03:00",3.7,3.1,0.2,0.0,137,1019.5,1,1,"",96
"2024-03-06 09:04:00",3.7,3.1,0.2,0.0,139,1019.5,1,2,"",96
"2024-03-06 09:05:00",3.7,3.1,0.2,0.0,139,1019.5,1,2,"",96
"2024-03-06 09:06:00",3.6,3.0,0.2,0.0,135,1019.5,1,1,"",96
"2024-03-06 09:07:00",3.6,3.0,0.2,0.0,135,1019.5,1,1,"",96
"2024-03-06 09:08:00",3.7,3.1,0.2,0.0,134,1019.5,1,1,"",96
"2024-03-06 09:09:00",3.7,3.1,0.2,0.0,127,1019.5,1,1,"",96
"2024-03-06 09:10:00",3.7,3.1,0.2,0.0,120,1019.5,1,1,"",96
"2024-03-06 09:11:00",3.8,3.2,0.2,0.0,107,1019.5,1,2,"",96
"2024-03-06 09:12:00",3.7,3.1,0.2,0.0,105,1019.5,2,2,"",96
"2024-03-06 09:13:00",3.7,3.1,0.2,0.0,104,1019.6,1,2,"",96
"2024-03-06 09:14:00",3.8,3.2,0.2,0.0,98,1019.6,1,2,"",96
"2024-03-06 09:15:00",3.8,3.2,0.2,0.0,98,1019.6,2,3,"",96
"2024-03-06 09:16:00",3.8,3.2,0.2,0.0,95,1019.6,1,2,"",96
"2024-03-06 09:17:00",3.8,3.2,0.2,0.0,100,1019.7,1,2,"",96
"2024-03-06 09:18:00",3.8,3.2,0.2,0.0,104,1019.7,2,3,"",96
"2024-03-06 09:19:00",4.0,3.4,0.2,0.0,121,1019.7,2,4,2.3,96
"2024-03-06 09:20:00",4.1,3.5,0.2,0.0,125,1019.7,1,2,"",96
"2024-03-06 09:21:00",4.2,3.6,0.2,0.0,109,1019.6,1,3,"",96
"2024-03-06 09:22:00",4.2,3.6,0.2,0.0,111,1019.7,1,2,"",96
"2024-03-06 09:23:00",4.2,3.6,0.2,0.0,113,1019.7,1,2,"",96
"2024-03-06 09:24:00",4.2,3.6,0.2,0.0,127,1019.7,1,2,"",96
"2024-03-06 09:25:00",4.2,3.6,0.2,0.0,134,1019.7,1,1,"",96
"2024-03-06 09:26:00",4.2,3.6,0.2,0.5,132,1019.8,1,2,"",96
"2024-03-06 09:27:00",4.3,3.7,0.2,0.5,139,1019.8,1,2,"",96
"2024-03-06 09:28:00",4.3,3.7,0.2,0.5,146,1019.8,2,2,"",96
"2024-03-06 09:29:00",4.3,3.7,0.2,0.5,142,1019.8,1,2,"",96
"2024-03-06 09:30:00",4.2,3.6,0.2,0.5,137,1019.8,2,3,"",96
"2024-03-06 09:31:00",4.2,3.6,0.2,0.5,128,1019.7,1,1,"",96
"2024-03-06 09:32:00",4.2,3.6,0.2,0.5,121,1019.7,1,2,"",96
"2024-03-06 09:33:00",4.2,3.6,0.2,0.5,118,1019.7,1,3,"",96
"2024-03-06 09:34:00",4.2,3.6,0.2,0.5,130,1019.8,2,3,"",96
"2024-03-06 09:35:00",4.2,3.6,0.2,0.5,137,1019.8,1,2,"",96
"2024-03-06 09:36:00",4.3,3.7,0.2,0.5,139,1019.8,1,2,"",96
"2024-03-06 09:37:00",4.3,3.7,0.2,0.5,137,1019.8,1,2,"",96
"2024-03-06 09:38:00",4.3,3.7,0.2,0.5,135,1019.7,1,1,"",96
"2024-03-06 09:39:00",4.3,3.7,0.2,0.5,137,1019.8,1,1,"",96
"2024-03-06 09:40:00",4.4,3.8,0.2,0.5,123,1019.8,0,1,"",96
"2024-03-06 09:41:00",4.4,3.8,0.2,0.5,132,1019.8,1,2,"",96
"2024-03-06 09:42:00",4.4,3.8,0.2,0.5,146,1019.9,1,3,"",96
"2024-03-06 09:43:00",4.4,3.8,0.2,0.5,156,1019.9,2,3,"",96
"2024-03-06 09:44:00",4.4,3.8,0.2,0.5,158,1019.9,1,2,"",96
"2024-03-06 09:45:00",4.6,4.0,0.2,0.5,160,1019.9,1,2,"",96
"2024-03-06 09:46:00",4.7,4.1,0.2,0.6,162,1019.8,2,3,"",96
"2024-03-06 09:47:00",4.7,4.3,0.2,0.6,167,1019.9,1,2,"",97
"2024-03-06 09:48:00",4.6,4.0,0.2,0.6,165,1019.9,1,1,"",96
"2024-03-06 09:49:00",4.6,4.0,0.2,0.6,156,1019.8,0,1,"",96
"2024-03-06 09:50:00",4.6,4.0,0.2,0.6,151,1019.9,0,1,"",96
"2024-03-06 09:51:00",4.6,4.0,0.2,0.6,149,1019.9,1,1,"",96
"2024-03-06 09:52:00",4.7,4.1,0.2,0.6,183,1019.8,1,2,"",96
"2024-03-06 09:53:00",4.8,4.2,0.2,0.7,193,1019.9,2,2,"",96
"2024-03-06 09:54:00",4.8,4.4,0.2,0.7,193,1019.9,1,2,"",97
"2024-03-06 09:55:00",4.7,4.1,0.2,0.7,188,1019.9,1,2,"",96
"2024-03-06 09:56:00",4.7,4.1,0.2,0.7,188,1019.9,1,2,"",96
"2024-03-06 09:57:00",4.7,4.1,0.2,0.7,193,1019.9,1,2,"",96
"2024-03-06 09:58:00",4.7,4.1,0.2,0.7,186,1019.9,1,2,"",96
"2024-03-06 09:59:00",4.8,4.2,0.2,0.6,176,1019.9,1,2,"",96
"2024-03-06 10:00:00",4.8,4.2,0.2,0.6,165,1019.9,1,3,"",96
"2024-03-06 10:01:00",4.9,4.3,0.2,0.6,155,1019.9,2,4,3.4,96
"2024-03-06 10:02:00",4.8,4.2,0.2,0.6,149,1019.9,2,2,"",96